カタログに戻る

DELTA 1 DEB

運用中LEO
NORAD 10707·DEBRIS·🇺🇸 United States

打ち上げ Jul 29, 1976 から Vandenberg Space Force Base

Loading…

次のパス (今後24時間)

TLE

最新Source: Space-Track

元期: Sep 14, 2026, 11:42 UTC

1 10707U 76077AC  26257.48771948  .00000176  00000-0  24574-2 0  9990
2 10707 102.1949 261.1533 0262187 149.9422   4.1250 11.98526122163055

AllMySatでDELTA 1 DEBをリアルタイム追跡

Download on the App Store